�N����,����,�~����,�C��,���x,�C��,����,���ϕ���,�ő�u�ԕ���,�ő厞����,���˗�,�I�_���x,�n�����x,�ő啗���N��,DTYPE
"18/07/31","00:10",0.0,26.4,76.8,1000.3,356.6,0.6,2.0,14.7,0.00,22.0,26.1,"00:08:08",1
"18/07/31","00:20",0.0,26.4,76.2,1000.3,14.0,0.7,1.7,347.5,0.00,21.9,26.2,"00:15:20",1
"18/07/31","00:30",0.0,26.2,76.7,1000.3,358.6,0.7,1.8,48.2,0.00,21.8,25.9,"00:23:52",1
"18/07/31","00:40",0.0,26.1,77.0,1000.0,359.6,0.6,1.8,14.2,0.00,21.8,26.2,"00:38:48",1
"18/07/31","00:50",0.0,26.1,76.7,1000.0,6.9,0.8,2.5,357.8,0.00,21.7,26.0,"00:40:32",1
"18/07/31","01:00",0.0,25.9,77.0,1000.3,351.3,0.6,1.9,322.6,0.00,21.6,26.0,"00:52:32",1
"18/07/31","01:10",0.0,25.7,77.5,1000.0,346.2,0.5,1.4,343.1,0.00,21.5,25.8,"01:00:40",1
"18/07/31","01:20",0.0,25.4,79.2,1000.3,344.5,0.6,1.2,329.8,0.00,21.6,25.9,"01:12:48",1
"18/07/31","01:30",0.0,25.4,79.6,1000.0,349.0,0.6,1.4,349.9,0.00,21.7,25.7,"01:27:44",1
"18/07/31","01:40",0.0,25.5,78.7,1000.0,340.4,0.7,1.6,63.0,0.00,21.6,26.0,"01:36:40",1
"18/07/31","01:50",0.0,25.1,79.2,1000.0,306.6,0.6,1.2,328.8,0.00,21.3,25.9,"01:41:20",1
"18/07/31","02:00",0.0,24.7,81.4,1000.5,334.3,0.8,1.7,327.6,0.00,21.3,25.7,"01:54:48",1
"18/07/31","02:10",0.0,24.5,82.6,1000.0,314.0,0.8,1.9,337.8,0.00,21.4,25.4,"02:01:52",1
"18/07/31","02:20",0.0,24.2,83.8,1000.0,304.1,0.5,1.7,325.3,0.00,21.3,25.7,"02:10:16",1
"18/07/31","02:30",0.0,23.9,84.4,1000.0,301.9,0.7,1.2,298.9,0.00,21.1,25.8,"02:28:00",1
"18/07/31","02:40",0.0,23.6,85.8,1000.0,292.4,0.7,1.2,315.8,0.00,21.1,25.7,"02:34:08",1
"18/07/31","02:50",0.0,23.5,87.3,1000.0,310.7,0.7,1.3,329.9,0.00,21.3,25.7,"02:42:24",1
"18/07/31","03:00",0.0,23.5,87.2,1000.0,289.5,0.8,1.6,313.5,0.00,21.3,25.5,"02:55:44",1
"18/07/31","03:10",0.0,23.6,88.0,1000.3,302.6,1.0,1.8,343.3,0.00,21.5,25.6,"03:04:56",1
"18/07/31","03:20",0.0,23.9,87.6,1000.3,300.4,1.0,1.9,323.8,0.00,21.8,25.5,"03:19:52",1
"18/07/31","03:30",0.0,23.9,87.5,1000.3,323.3,1.2,1.9,329.7,0.00,21.7,25.4,"03:25:20",1
"18/07/31","03:40",0.0,23.7,87.6,999.8,269.0,0.6,1.0,297.0,0.00,21.6,25.6,"03:34:48",1
"18/07/31","03:50",0.0,23.7,88.4,1000.0,304.3,1.3,2.2,331.5,0.00,21.7,25.3,"03:40:02",1
"18/07/31","04:00",0.0,23.8,88.0,999.6,291.1,1.0,1.6,335.0,0.00,21.7,25.4,"03:51:28",1
"18/07/31","04:10",0.0,23.8,88.1,1000.0,308.8,1.0,1.3,323.2,0.00,21.8,25.2,"04:00:56",1
"18/07/31","04:20",0.0,23.6,88.3,1000.0,300.1,0.7,1.4,333.5,0.00,21.6,25.4,"04:11:28",1
"18/07/31","04:30",0.0,23.5,89.3,1000.0,308.9,1.1,1.7,326.5,0.00,21.7,25.3,"04:24:48",1
"18/07/31","04:40",0.0,23.7,89.5,1000.0,314.7,1.0,1.7,323.1,0.00,21.9,25.2,"04:38:56",1
"18/07/31","04:50",0.0,23.8,89.3,1000.3,296.1,0.7,1.0,315.9,0.00,22.0,25.3,"04:42:40",1
"18/07/31","05:00",0.0,23.8,89.4,1000.5,325.6,1.0,1.4,341.9,0.00,22.0,25.2,"04:59:36",1
"18/07/31","05:10",0.0,23.8,89.6,1000.3,331.2,0.8,1.4,346.0,0.00,22.0,25.2,"05:05:04",1
"18/07/31","05:20",0.0,23.7,89.5,1000.8,311.0,1.0,1.4,316.2,0.00,21.9,25.3,"05:13:28",1
"18/07/31","05:30",0.0,23.4,90.5,1000.5,310.8,0.7,1.9,316.1,0.00,21.8,25.3,"05:28:00",1
"18/07/31","05:40",0.0,23.5,90.7,1000.5,309.2,0.7,1.3,315.1,0.00,21.9,25.1,"05:38:56",1
"18/07/31","05:50",0.0,23.5,90.8,1000.5,308.6,0.8,1.2,319.4,0.00,21.9,25.3,"05:48:32",1
"18/07/31","06:00",0.0,23.6,91.3,1001.0,290.8,0.3,1.2,307.5,0.00,22.1,25.4,"05:50:08",1
"18/07/31","06:10",0.0,23.8,91.6,1001.0,304.2,0.7,1.2,323.2,0.00,22.4,25.2,"06:02:48",1
"18/07/31","06:20",0.0,24.0,91.4,1001.0,324.3,0.7,1.2,333.9,0.01,22.6,25.2,"06:11:44",1
"18/07/31","06:30",0.0,24.6,91.3,1000.8,299.9,0.6,1.0,334.4,0.02,23.1,25.2,"06:21:20",1
"18/07/31","06:40",0.0,25.7,90.1,1001.0,293.3,0.5,1.0,299.4,0.04,24.0,25.2,"06:32:56",1
"18/07/31","06:50",0.0,26.0,88.5,1001.0,322.0,0.6,1.4,348.8,0.02,24.0,25.1,"06:48:24",1
"18/07/31","07:00",0.0,26.9,85.2,1001.0,350.9,0.6,1.9,14.6,0.06,24.2,25.3,"06:52:16",1
"18/07/31","07:10",0.0,28.1,79.2,1000.5,32.1,0.5,1.8,116.5,0.08,24.2,25.2,"07:06:56",1
"18/07/31","07:20",0.0,28.3,77.5,1000.5,96.3,0.7,1.8,45.5,0.10,24.0,25.3,"07:18:16",1
"18/07/31","07:30",0.0,29.0,76.0,999.8,96.4,0.7,2.6,117.1,0.14,24.4,25.4,"07:20:48",1
"18/07/31","07:40",0.0,29.1,74.1,1000.3,100.3,1.0,2.1,148.5,0.17,24.1,25.3,"07:38:24",1
"18/07/31","07:50",0.0,29.4,72.2,1000.3,84.4,1.1,2.8,50.1,0.19,23.9,25.5,"07:46:16",1
"18/07/31","08:00",0.0,29.6,70.5,1000.5,85.7,1.0,2.4,57.7,0.18,23.7,25.5,"07:50:16",1
"18/07/31","08:10",0.0,29.7,70.1,1001.0,99.0,1.0,2.2,63.3,0.20,23.7,25.6,"08:08:24",1
"18/07/31","08:20",0.0,29.7,71.3,1000.5,99.4,1.0,2.2,78.5,0.18,24.0,25.4,"08:11:04",1
"18/07/31","08:30",0.0,30.1,69.3,1000.8,105.7,1.2,2.8,118.6,0.28,23.9,25.7,"08:24:32",1
"18/07/31","08:40",0.0,30.5,69.1,1001.2,95.6,1.1,2.1,48.2,0.28,24.2,25.8,"08:30:48",1
"18/07/31","08:50",0.0,29.8,70.5,1001.0,98.3,1.1,2.7,74.4,0.25,23.9,25.8,"08:44:24",1
"18/07/31","09:00",0.0,30.1,69.5,1000.8,109.6,1.5,3.5,139.0,0.29,23.9,25.8,"08:54:16",1
"18/07/31","09:10",0.0,31.0,70.0,1001.0,102.4,1.3,4.7,57.3,0.36,24.9,26.0,"09:01:12",1
"18/07/31","09:20",0.0,30.5,68.2,1001.5,115.3,1.6,4.2,153.0,0.37,24.0,26.2,"09:14:16",1
"18/07/31","09:30",0.0,31.2,67.2,1001.2,116.0,1.3,3.6,134.1,0.43,24.4,26.3,"09:23:44",1
"18/07/31","09:40",0.0,31.5,65.7,1001.2,118.8,1.7,4.2,117.2,0.45,24.3,26.1,"09:30:02",1
"18/07/31","09:50",0.0,31.9,64.9,1001.5,104.9,1.5,4.0,138.5,0.44,24.5,26.5,"09:40:16",1
"18/07/31","10:00",0.0,31.3,64.1,1001.9,113.5,1.6,4.3,157.4,0.46,23.7,26.5,"09:59:44",1
"18/07/31","10:10",0.0,32.2,65.5,1001.9,130.7,2.0,5.5,141.4,0.46,25.0,26.8,"10:00:08",1
"18/07/31","10:20",0.0,32.0,63.9,1001.9,114.5,1.3,3.4,110.5,0.41,24.3,26.8,"10:16:56",1
"18/07/31","10:30",0.0,32.2,62.6,1001.9,110.1,1.3,2.9,109.8,0.41,24.2,26.8,"10:25:44",1
"18/07/31","10:40",0.0,31.9,62.5,1002.2,116.8,1.5,3.6,142.6,0.45,23.9,27.1,"10:32:32",1
"18/07/31","10:50",0.0,32.3,64.1,1001.5,94.8,1.0,2.5,68.5,0.25,24.7,27.2,"10:47:12",1
"18/07/31","11:00",0.0,31.8,60.7,1001.2,89.9,1.2,2.8,78.5,0.27,23.3,27.2,"10:53:44",1
"18/07/31","11:10",0.0,32.0,60.6,1000.8,109.5,1.2,2.4,150.9,0.29,23.5,27.3,"11:09:40",1
"18/07/31","11:20",0.0,32.0,59.1,1001.2,120.3,1.6,4.1,158.8,0.34,23.1,27.4,"11:10:56",1
"18/07/31","11:30",0.0,32.7,57.6,1000.8,90.8,1.2,3.1,45.2,0.36,23.3,27.6,"11:27:28",1
"18/07/31","11:40",0.0,32.8,59.7,1000.8,89.5,1.2,3.7,118.1,0.36,24.0,27.7,"11:33:44",1
"18/07/31","11:50",0.0,33.4,57.6,1000.5,107.4,1.0,2.8,132.1,0.41,23.9,28.0,"11:42:32",1
"18/07/31","12:00",0.0,33.1,57.0,1000.8,131.1,1.6,4.5,127.4,0.50,23.5,28.1,"11:51:52",1
"18/07/31","12:10",0.0,34.1,53.1,1001.0,136.7,1.6,4.7,130.9,0.62,23.2,28.3,"12:01:44",1
"18/07/31","12:20",0.0,33.2,55.1,1001.0,143.7,2.1,5.4,122.3,0.48,23.0,28.3,"12:14:32",1
"18/07/31","12:30",0.0,33.3,55.0,1000.8,105.5,1.0,2.0,128.0,0.31,23.1,28.3,"12:25:12",1
"18/07/31","12:40",0.0,34.5,54.5,1001.2,106.9,1.1,3.2,100.7,0.60,24.0,28.7,"12:34:16",1
"18/07/31","12:50",0.0,33.5,52.1,1001.0,109.3,1.2,2.8,96.8,0.31,22.4,28.8,"12:45:44",1
"18/07/31","13:00",0.0,33.9,53.3,1001.0,91.2,1.2,2.7,98.3,0.45,23.1,28.8,"12:54:08",1
"18/07/31","13:10",0.0,32.9,54.6,1000.8,83.9,1.1,2.7,40.2,0.26,22.6,29.0,"13:04:40",1
"18/07/31","13:20",0.0,32.4,54.1,1000.0,108.9,1.5,3.9,165.6,0.23,22.0,29.0,"13:11:44",1
"18/07/31","13:30",0.0,32.7,54.8,1000.3,92.9,1.5,3.3,84.1,0.28,22.5,29.0,"13:21:36",1
"18/07/31","13:40",0.0,32.8,53.8,999.8,106.1,1.3,4.0,152.4,0.15,22.2,29.1,"13:34:00",1
"18/07/31","13:50",0.0,33.0,53.1,999.3,99.5,1.1,2.9,55.2,0.22,22.2,28.8,"13:46:24",1
"18/07/31","14:00",0.0,32.7,55.4,998.9,113.8,1.0,2.4,139.4,0.13,22.6,28.8,"13:54:40",1
"18/07/31","14:10",0.0,34.5,56.3,999.3,103.2,1.0,3.4,70.4,0.36,24.6,29.0,"14:02:48",1
"18/07/31","14:20",0.0,34.1,49.9,999.6,116.8,1.2,4.1,123.3,0.36,22.2,29.1,"14:14:48",1
"18/07/31","14:30",0.0,33.4,51.2,999.3,88.9,1.2,2.8,44.6,0.21,22.0,28.9,"14:28:00",1
"18/07/31","14:40",0.0,33.0,52.0,999.1,108.0,1.2,2.6,119.5,0.16,21.9,28.8,"14:35:28",1
"18/07/31","14:50",0.0,33.4,51.9,998.9,82.6,1.0,3.1,78.4,0.17,22.2,29.0,"14:49:20",1
"18/07/31","15:00",0.0,32.9,53.0,998.9,107.6,1.1,3.3,147.2,0.14,22.1,28.7,"14:51:28",1
"18/07/31","15:10",0.0,33.1,52.3,998.6,84.6,1.0,3.3,41.2,0.12,22.1,28.8,"15:08:56",1
"18/07/31","15:20",0.0,32.9,53.0,998.6,60.1,1.1,3.2,64.4,0.08,22.1,28.9,"15:13:52",1
"18/07/31","15:30",0.0,33.4,54.9,998.4,116.9,1.2,4.1,121.3,0.19,23.1,28.7,"15:28:32",1
"18/07/31","15:40",0.0,34.3,53.2,998.4,82.4,1.1,3.1,26.8,0.26,23.4,28.7,"15:38:00",1
"18/07/31","15:50",0.0,34.2,51.1,998.4,95.6,1.2,2.6,111.2,0.28,22.7,28.9,"15:48:32",1
"18/07/31","16:00",0.0,35.1,49.0,998.6,94.3,1.2,3.5,77.8,0.33,22.8,29.0,"15:59:12",1
"18/07/31","16:10",0.0,35.3,49.5,998.4,89.8,0.8,2.8,125.4,0.24,23.2,29.0,"16:01:20",1
"18/07/31","16:20",0.0,34.2,51.4,998.4,104.3,1.2,3.7,116.3,0.07,22.8,29.0,"16:15:12",1
"18/07/31","16:30",0.0,33.6,53.0,998.2,76.5,1.0,2.7,61.2,0.08,22.7,29.0,"16:25:44",1
"18/07/31","16:40",0.0,33.5,52.9,998.2,118.4,1.1,2.9,119.0,0.12,22.6,29.0,"16:35:12",1
"18/07/31","16:50",0.0,32.9,55.7,997.7,133.3,1.2,2.6,118.7,0.05,22.9,28.9,"16:40:16",1
"18/07/31","17:00",0.0,33.4,56.0,997.2,83.3,1.0,2.8,80.0,0.13,23.5,29.0,"16:59:28",1
"18/07/31","17:10",0.0,33.3,53.9,997.7,104.4,1.2,2.6,172.5,0.06,22.7,28.8,"17:03:52",1
"18/07/31","17:20",0.0,33.1,56.7,997.7,102.4,0.8,2.5,90.2,0.05,23.4,28.9,"17:12:32",1
"18/07/31","17:30",0.0,33.8,54.6,997.4,118.7,0.7,1.9,139.9,0.13,23.4,29.0,"17:21:36",1
"18/07/31","17:40",0.0,34.1,53.1,997.7,99.5,0.6,2.4,39.4,0.08,23.2,28.8,"17:33:52",1
"18/07/31","17:50",0.0,33.4,54.4,997.7,129.1,1.2,2.4,155.8,0.03,23.0,28.7,"17:45:36",1
"18/07/31","18:00",0.0,32.7,55.6,997.2,96.9,0.8,2.6,130.2,0.01,22.7,28.8,"17:50:56",1
"18/07/31","18:10",0.0,32.6,56.9,997.4,79.2,0.8,2.4,64.2,0.01,23.0,28.7,"18:07:12",1
"18/07/31","18:20",0.0,32.4,57.8,997.4,46.6,0.7,2.0,33.9,0.01,23.1,28.6,"18:12:16",1
"18/07/31","18:30",0.0,32.3,58.1,997.0,75.7,0.8,2.2,89.5,0.00,23.0,28.6,"18:22:56",1
"18/07/31","18:40",0.0,32.2,58.1,997.2,82.6,1.2,3.1,123.4,0.00,23.0,28.5,"18:33:52",1
"18/07/31","18:50",0.0,32.1,59.3,997.0,69.4,0.8,2.5,98.6,0.00,23.2,28.5,"18:40:56",1
"18/07/31","19:00",0.0,31.7,60.9,997.0,45.6,0.7,1.7,54.3,0.00,23.3,28.3,"18:56:16",1
"18/07/31","19:10",0.0,31.3,62.4,997.0,36.4,0.8,2.4,3.8,0.00,23.3,28.4,"19:07:12",1
"18/07/31","19:20",0.0,31.0,63.6,996.7,32.4,0.7,1.7,19.0,0.00,23.3,28.2,"19:13:20",1
"18/07/31","19:30",0.0,30.8,64.4,996.5,67.0,0.8,2.5,71.9,0.00,23.3,28.1,"19:25:20",1
"18/07/31","19:40",0.0,30.7,64.6,996.7,55.9,0.6,2.4,61.3,0.00,23.3,28.1,"19:30:08",1
"18/07/31","19:50",0.0,30.4,65.8,996.5,24.9,0.3,1.8,348.8,0.00,23.3,27.9,"19:48:16",1
"18/07/31","20:00",0.0,30.1,66.7,996.5,35.2,0.5,1.7,33.2,0.00,23.3,28.0,"19:53:28",1
"18/07/31","20:10",0.0,29.9,67.7,996.3,18.2,1.0,2.6,23.3,0.00,23.3,28.0,"20:08:24",1
"18/07/31","20:20",0.0,29.6,68.5,996.7,343.4,0.6,1.8,344.7,0.00,23.2,27.7,"20:16:08",1
"18/07/31","20:30",0.0,29.5,69.4,996.7,6.7,1.0,1.7,15.3,0.00,23.3,27.7,"20:26:16",1
"18/07/31","20:40",0.0,29.2,70.3,997.2,356.4,0.8,1.4,346.9,0.00,23.3,27.5,"20:31:20",1
"18/07/31","20:50",0.0,28.6,72.3,997.0,351.1,0.8,1.6,335.2,0.00,23.2,27.7,"20:47:44",1
"18/07/31","21:00",0.0,28.0,75.1,997.7,341.8,0.7,1.6,342.1,0.00,23.2,27.5,"20:50:32",1
"18/07/31","21:10",0.0,27.4,77.0,997.7,325.0,0.8,1.3,316.6,0.00,23.0,27.6,"21:00:08",1
"18/07/31","21:20",0.0,27.1,79.6,997.9,342.7,1.0,1.4,334.2,0.00,23.3,27.4,"21:16:40",1
"18/07/31","21:30",0.0,26.9,80.1,997.9,328.6,0.7,1.1,344.4,0.00,23.2,27.5,"21:26:56",1
"18/07/31","21:40",0.0,26.6,81.3,998.4,307.9,0.8,1.3,333.3,0.00,23.2,27.2,"21:37:04",1
"18/07/31","21:50",0.0,26.4,82.7,998.2,277.6,0.7,1.3,246.0,0.00,23.3,27.4,"21:45:44",1
"18/07/31","22:00",0.0,26.5,82.1,998.2,296.8,0.8,1.2,341.0,0.00,23.2,27.2,"21:53:04",1
"18/07/31","22:10",0.0,26.4,82.7,997.9,290.4,0.7,1.2,303.1,0.00,23.3,27.2,"22:05:12",1
"18/07/31","22:20",0.0,26.2,82.7,998.4,294.4,0.5,1.0,332.3,0.00,23.1,27.0,"22:11:12",1
"18/07/31","22:30",0.0,25.9,83.7,998.4,312.3,0.6,1.2,321.6,0.00,23.0,27.1,"22:21:52",1
"18/07/31","22:40",0.0,25.8,84.5,998.4,297.1,1.0,1.4,301.9,0.00,23.0,27.1,"22:34:40",1
"18/07/31","22:50",0.0,25.8,84.7,998.6,316.9,0.5,1.0,355.7,0.00,23.1,26.9,"22:48:08",1
"18/07/31","23:00",0.0,25.6,84.8,998.6,317.7,0.8,1.2,335.7,0.00,22.9,26.8,"22:54:32",1
"18/07/31","23:10",0.0,25.3,86.1,998.2,295.5,0.5,0.9,263.3,0.00,22.8,26.8,"23:03:52",1
"18/07/31","23:20",0.0,25.3,86.1,998.6,292.3,0.7,1.0,263.5,0.00,22.8,26.8,"23:14:24",1
"18/07/31","23:30",0.0,25.2,86.4,998.6,318.5,0.8,1.2,318.5,0.00,22.8,26.7,"23:24:08",1
"18/07/31","23:40",0.0,25.1,86.7,998.4,306.5,0.5,1.2,320.4,0.00,22.8,26.9,"23:33:52",1
"18/07/31","23:50",0.0,25.0,87.1,998.6,320.6,0.6,1.2,342.4,0.00,22.7,26.7,"23:47:20",1
"18/07/31","24:00",0.0,24.9,87.3,998.6,303.4,0.6,1.1,337.5,0.00,22.7,26.5,"23:58:56",1
